STARLINK-1735, 46565

Orbit data source: Space-Track

STARLINK-1735, 46565 is a payload satellite owned by SpaceX/Seattle (US) in LEO that was launched on Tue, 06 Oct 2020 UTC via an FALCON 9 launch vehicle from the Air Force Eastern Test Range (AFETR). Payload-class satellites include a variety of spacecraft equipped with specific instruments for various scientific and technological missions. These include communications satellites like Starlink; space stations such as the ISS; scientific satellites like the Hubble; Earth observation satellites from companies like Planet Labs, Umbra, and HawkEye 360; GPS; miniature CubeSats for education and research; and military/defense satellites.

Loading next visibility...
Identifier
46565, 2020-070AK
Orbit
LEO
Country
Flag of USUS
Related business
Manufacturer
SpaceX/Seattle
Mission
Operational Commercial Communications
Bus & Motor
STARLINK, Unknown motor
Mass
260 kg wet, ~248 kg dry
Launch date (UTC)
2020-10-06 (5 years ago)
Launch vehicle
FALCON 9
Launch site
Air Force Eastern Test Range (AFETR)
Object type
Payload
Rocket body
Debris
Shape & HBR
Box + 1 Pan, 4.4 m
Radar Cross Section
13.562 m², Large (>1 m²)

Expand to show TLE details & history
Last TLE update: 1 day ago

TLE from 1 day ago
0 STARLINK-1735
1 46565U 20070AK  25259.60973948  .00000104  00000-0  25852-4 0  9995
2 46565  53.0532 218.0959 0001160  88.8397 271.2725 15.06396523273548
Epoch: 2025-09-16T14:38Z
TLE epoch observation values (Epoch: 2025-09-16T14:38:01.491Z)
Latitude
0.00001°
Longitude
2.79212°
Altitude
548.083 km
Speed
7.589 km/s
True Right ascension
14h 32m 23s
True Declination
0° 00' 00"
Sunlit
Object was in daylight at epoch
Visualization orbit readout
Latitude
Unknown
Longitude
Unknown
Altitude
Unknown
Speed
Unknown
Apparent Right ascension
Unknown
Apparent Declination
Unknown
Sunlit
N/A
Visualization observer readout
Local Sidereal Time
17:34:08
Azimuth
Unknown
Elevation
Unknown
Doppler factor
Unknown
Orbital elements
Apogee altitude
548.297 km
Perigee altitude
546.69 km
Semi-major axis
6,925.63 km
Eccentricity
0.00012
Inclination
53.0532°
RAAN
218.0959°
Arg. of periapsis
88.8397°
True anomaly
271.25921°
Mean anomaly
271.2725°
Eccentric anomaly
271.26586°
Mean motion
3.76577 °/min
Orbital period
95.6 mins
BSTAR
0.000025852
Loading maneuver chart data...
Computing Atmospheric mass density...
Loading historical data...
Loading historical data...
Loading historical data...
Loading historical data...
Loading historical data...
Loading historical data...
Loading historical data...

Documentation

Showing up to 5 results
|